RH
18 20 25 27 29 25 23 19 20 21 20 21 21 21 22 33 41 50 52 42 39 40 40 43 47 45 45 44 47 47 44 46 46 47 49 49 46 45 35 28 25 26 41 58 49 43 41 30 23
22 26 30 31 33 27 22 24 24 24 23 21 18 20 23 37 37 42 44 37 39 41 43 44 47 50 53 51 48 53 51 49 46 46 47 52 52 45 41 33 29 27 49 66 61 48 36 30 25
24 32 33 34 25 26 31 26 31 26 23 21 21 21 29 36 35 32 31 38 40 43 45 44 49 53 54 56 55 56 58 56 51 48 44 46 50 49 44 39 35 32 45 58 60 43 31 25 25
30 32 32 32 26 26 28 32 29 27 22 21 23 25 27 32 31 26 27 33 41 44 47 51 53 54 55 53 54 56 59 58 57 48 45 44 43 50 50 44 43 39 42 54 61 48 30 27 24
32 31 31 25 26 29 30 27 26 27 26 24 23 25 28 28 25 24 24 26 35 43 46 49 53 55 55 52 55 60 62 64 62 56 53 50 48 50 50 49 53 53 51 58 64 55 32 28 27
37 35 34 32 28 30 29 28 26 26 26 24 24 24 29 27 25 24 23 23 28 37 44 46 48 50 53 52 57 59 62 61 61 60 58 57 57 57 55 52 54 56 58 62 60 54 46 31 28
38 33 32 29 33 29 29 26 24 26 26 25 25 24 32 30 24 23 24 23 24 30 40 44 46 44 48 49 47 52 58 62 62 58 58 58 59 60 61 59 57 61 63 67 68 62 59 43 36
27 24 22 24 25 28 25 22 21 20 20 19 19 20 24 24 22 20 20 22 22 24 31 44 48 48 49 48 55 54 54 55 60 67 66 62 56 57 59 54 55 56 63 66 70 70 68 62 45
21 21 19 19 17 22 18 17 15 14 14 13 12 12 13 14 13 11 10 12 15 18 21 31 44 47 50 54 57 59 60 59 59 62 66 68 65 62 54 50 51 51 56 62 67 72 73 70 62
16 19 25 22 20 20 18 16 15 12 12 12 13 12 13 11 10 9 9 9 9 11 13 17 24 39 44 49 53 57 61 61 62 60 66 68 70 70 69 64 59 56 55 56 60 65 68 72 69
16 23 21 21 18 17 15 14 14 13 13 13 12 11 10 10 10 10 9 9 9 8 8 11 13 18 29 38 44 47 56 63 64 65 66 62 65 69 75 75 71 69 68 66 65 64 66 67 67
20 19 19 19 18 16 15 14 12 11 11 11 10 10 10 10 10 10 10 10 9 9 9 8 9 12 16 24 33 40 47 52 54 61 62 62 61 62 68 69 72 79 77 72 65 65 67 70 72
18 20 18 18 17 15 14 13 12 10 10 10 10 11 12 13 13 14 15 14 13 12 11 11 10 9 12 16 23 33 40 47 50 52 57 56 59 67 61 74 69 70 83 79 82 81 83 83 82
19 20 18 16 15 14 13 12 12 11 11 13 15 16 17 17 17 17 18 17 16 16 15 13 13 13 11 13 19 26 37 44 46 50 51 55 57 56 55 53 66 69 79 81 81 82 83 84 83
19 18 18 17 15 15 14 15 17 15 15 16 19 20 20 21 20 20 21 22 24 22 19 17 17 16 15 13 14 22 31 44 47 49 50 50 53 55 50 47 50 54 59 67 76 74 79 84 92
20 18 21 20 19 19 19 18 20 19 22 23 24 27 26 27 29 30 31 31 31 28 26 25 22 20 19 17 14 16 23 41 48 53 54 59 56 56 52 50 51 55 56 53 52 58 61 66 73
24 38 25 28 25 24 26 25 24 25 26 28 30 33 33 34 35 36 36 34 31 31 29 27 27 26 23 20 19 17 20 32 48 54 57 60 63 56 50 53 56 55 55 55 53 50 54 56 59
37 32 30 28 32 31 31 30 27 29 30 32 33 36 36 36 37 38 35 34 32 33 32 31 32 32 30 26 22 19 21 32 43 58 65 63 64 58 56 54 53 53 51 50 52 53 51 52 52
36 32 34 33 33 36 36 36 33 33 34 37 36 38 39 38 37 37 37 38 37 37 36 35 35 35 40 37 29 25 22 28 41 62 72 70 73 69 66 55 55 54 50 48 44 43 42 43 42
36 38 43 44 44 45 44 42 37 34 36 36 37 40 42 44 48 46 44 41 44 45 45 44 41 40 45 48 42 33 31 30 34 50 65 73 72 70 71 62 54 50 46 42 40 38 37 39 44
48 49 51 54 49 47 48 42 36 35 36 39 41 44 51 53 53 51 48 48 49 52 53 54 57 57 55 49 57 56 45 47 52 53 59 82 80 74 77 66 59 49 46 41 39 41 39 37 41
54 50 49 52 55 58 43 55 39 39 41 43 48 53 58 59 57 53 50 49 51 54 61 65 71 75 65 54 61 69 70 71 79 93 89 94 88 77 74 65 53 49 47 43 44 45 44 52 49
63 55 53 52 47 50 46 58 47 44 48 51 57 63 63 59 59 52 53 57 63 67 70 71 71 77 85 81 81 77 82 87 92 96 91 93 88 84 82 63 55 50 46 44 48 49 51 54 62
53 49 49 48 52 60 54 59 53 54 56 60 64 67 66 62 61 63 60 65 72 79 82 78 72 80 87 89 93 95 96 92 91 85 89 85 82 76 72 72 62 58 51 57 56 57 57 61 63
48 54 62 68 70 69 57 60 57 57 63 67 70 72 72 68 68 71 72 74 77 84 86 86 77 75 80 88 92 95 95 93 88 92 94 88 83 79 76 70 69 62 62 71 75 71 68 73 75
59 64 74 67 70 69 60 69 60 65 68 72 73 72 69 69 70 72 76 79 83 84 84 86 87 83 79 82 81 81 82 85 88 85 80 75 70 64 64 66 69 78 81 82 93 93 82 83 88
69 76 70 74 64 74 68 65 68 69 69 70 70 71 71 70 73 76 79 81 82 86 87 85 88 95 96 93 83 71 68 67 64 68 69 77 88 87 85 86 85 80 78 74 87 93 89 97 94
68 67 80 81 83 79 70 67 71 68 67 69 70 69 70 71 74 77 80 83 83 82 81 81 81 79 77 80 84 85 85 83 85 84 86 86 79 73 71 72 71 68 67 65 68 77 87 93 97
70 67 67 66 68 71 70 68 56 52 57 60 62 63 65 66 70 69 66 66 65 64 55 57 61 51 40 51 57 59 62 61 58 61 63 63 63 63 58 53 50 47 48 50 51 52 61 66 76
52 51 53 60 65 60 55 50 47 40 40 43 48 49 52 52 51 52 47 43 41 39 35 31 28 25 22 21 20 19 19 23 32 24 19 19 17 17 16 14 13 11 11 19 25 32 28 37 41